Weather History for Columbus, OH

Change the Weather History Date:

Monday, September 16, 2013

  Actual Average Record
Temperature  
Mean Temperature 64 °F 67 °F  
Max Temperature 73 °F 77 °F 96 °F (1897)
Min Temperature 54 °F 57 °F 40 °F (1916)
Degree Days  
Heating Degree Days 1 2  
Month to date heating degree days 19 16  
Since 1 July heating degree days 23 16  
Cooling Degree Days 0 4  
Month to date cooling degree days 106 88  
Year to date cooling degree days 1107 977  
Growing Degree Days 15 (Base 50)    
Moisture  
Dew Point 55 °F    
Average Humidity 72    
Maximum Humidity 100    
Minimum Humidity 44    
Precipitation  
Precipitation 0.08 in 0.09 in 1.46 in (1996)
Month to date precipitation 0.96 1.58  
Year to date precipitation 27.60 29.27  
Snow  
Snow 0.00 in 0.00 in - ()
Month to date snowfall 0.0 0.0  
Since 1 July snowfall 0.0 0.0  
Since 1 September snowfall 0.0 0.0  
Snow Depth 0.00 in    
Sea Level Pressure  
Sea Level Pressure 30.21 in    
Wind  
Wind Speed 6 mph (NNE)    
Max Wind Speed 14 mph    
Max Gust Speed 20 mph    
Visibility 8 miles    
Events Rain    
T = Trace of Precipitation, MM = Missing Value Source: NWS Daily Summary

Daily Weather History Graph

Daily Weather History Graph

Search for Another Location

Airport:

Trip Planner

Search our weather history database for the weather conditions in past years. The results will help you decide how hot, cold, wet, or windy it might be!

Date:

Astronomy

Sep. 16, 2013 Rise Set
Actual Time 7:13 AM EDT 7:38 PM EDT
Civil Twilight 6:46 AM EDT 8:05 PM EDT
Nautical Twilight 6:14 AM EDT 8:37 PM EDT
Astronomical Twilight 5:41 AM EDT 9:09 PM EDT
Moon 5:46 PM EDT (9/16) 3:58 AM EDT (9/16)
Length of Visible Light 13h 18m
Length of Day
12h 24m
Waxing Gibbous, 90% of the Moon is Illuminated
Sep 16
Waxing Gibbous
Sep 19
Full
Sep 26
Last Quarter
Oct 4
New
Oct 11
First Quarter

Hourly Weather History & Observations

Time (EDT) Temp. Dew Point Humidity Pressure Visibility Wind Dir Wind Speed Gust Speed Precip Events Conditions
12:51 AM 61.0 °F 57.0 °F 87% 30.11 in 10.0 mi North 10.4 mph - 0.00 in   Overcast
1:51 AM 59.0 °F 57.0 °F 93% 30.12 in 4.0 mi North 5.8 mph - 0.05 in Rain Rain
2:51 AM 59.0 °F 57.0 °F 93% 30.12 in 10.0 mi Calm Calm - 0.02 in   Overcast
3:51 AM 60.1 °F 57.0 °F 90% 30.11 in 10.0 mi Calm Calm - 0.01 in Rain Light Rain
4:51 AM 60.1 °F 57.9 °F 93% 30.12 in 10.0 mi Calm Calm - 0.00 in   Overcast
5:51 AM 59.0 °F 57.9 °F 96% 30.14 in 7.0 mi Calm Calm - N/A   Scattered Clouds
6:13 AM 57.2 °F 57.2 °F 100% 30.15 in 4.0 mi North 4.6 mph - N/A   Scattered Clouds
6:31 AM 59.0 °F 57.2 °F 94% 30.16 in 5.0 mi North 4.6 mph - N/A   Mostly Cloudy
6:51 AM 57.9 °F 57.0 °F 97% 30.16 in 5.0 mi North 8.1 mph - N/A   Overcast
7:51 AM 57.9 °F 57.0 °F 97% 30.17 in 4.0 mi NNE 5.8 mph - N/A   Mostly Cloudy
7:58 AM 57.2 °F 57.2 °F 100% 30.18 in 4.0 mi NNE 4.6 mph - N/A   Mostly Cloudy
8:51 AM 59.0 °F 57.9 °F 96% 30.19 in 4.0 mi North 5.8 mph - N/A   Overcast
9:51 AM 62.1 °F 57.9 °F 86% 30.21 in 7.0 mi North 6.9 mph - N/A   Mostly Cloudy
10:33 AM 62.6 °F 55.4 °F 77% 30.23 in 10.0 mi NNE 10.4 mph - N/A   Mostly Cloudy
10:51 AM 66.0 °F 57.0 °F 73% 30.22 in 10.0 mi North 9.2 mph - N/A   Mostly Cloudy
11:51 AM 66.9 °F 55.9 °F 68% 30.25 in 10.0 mi NNE 10.4 mph - N/A   Overcast
12:51 PM 66.0 °F 55.0 °F 68% 30.25 in 10.0 mi NE 9.2 mph - N/A   Overcast
1:51 PM 68.0 °F 55.0 °F 63% 30.25 in 10.0 mi ENE 4.6 mph - N/A   Overcast
1:59 PM 66.2 °F 55.4 °F 68% 30.26 in 10.0 mi NE 6.9 mph - N/A   Overcast
2:25 PM 69.8 °F 53.6 °F 56% 30.25 in 10.0 mi North 9.2 mph - N/A   Mostly Cloudy
2:51 PM 69.1 °F 53.1 °F 57% 30.25 in 10.0 mi North 6.9 mph - N/A   Mostly Cloudy
3:51 PM 72.0 °F 51.1 °F 48% 30.23 in 10.0 mi NNE 4.6 mph - N/A   Scattered Clouds
4:51 PM 73.0 °F 51.1 °F 46% 30.22 in 10.0 mi NNE 10.4 mph - N/A   Scattered Clouds
5:51 PM 72.0 °F 48.9 °F 44% 30.22 in 10.0 mi North 8.1 mph - N/A   Scattered Clouds
6:51 PM 69.1 °F 50.0 °F 51% 30.23 in 10.0 mi North 11.5 mph - N/A   Partly Cloudy
7:51 PM 64.9 °F 51.1 °F 61% 30.24 in 10.0 mi NNE 5.8 mph - N/A   Partly Cloudy
8:51 PM 62.1 °F 51.1 °F 67% 30.27 in 10.0 mi NNE 9.2 mph - N/A   Clear
9:51 PM 60.1 °F 51.1 °F 72% 30.28 in 10.0 mi NNE 8.1 mph - N/A   Clear
10:51 PM 57.0 °F 50.0 °F 77% 30.30 in 10.0 mi NNE 6.9 mph - N/A   Clear
11:51 PM 55.9 °F 50.0 °F 80% 30.31 in 10.0 mi NE 4.6 mph - N/A   Clear